Location: Aufkirchen
(47.9603°N, 11.3653°E)
Time: 23:21:24
(UTC+01:00)

Altair - All Passes

Search period start: 25 November 2020 00:00
Search period end: 05 December 2020 00:00
Orbit: 1502 x 1682 km, 47.2° (Epoch: 25 November)

Date Brightness Start Highest point End Pass type
(mag) Time Alt. Az. Time Alt. Az. Time Alt. Az.
25 Nov - 01:26:37 10° W 01:35:50 84° S 01:45:07 10° ESE visible
25 Nov - 03:31:18 10° WNW 03:40:03 52° SSW 03:48:58 10° SE visible
25 Nov - 05:37:21 10° W 05:43:06 18° SW 05:48:55 10° SSW visible
25 Nov - 18:57:58 10° SE 18:59:35 11° ESE 19:01:11 10° ESE visible
25 Nov - 20:53:47 10° SSW 21:02:10 39° SE 21:10:25 10° ENE visible
25 Nov - 22:56:49 10° WSW 23:06:02 76° SSE 23:15:12 10° E night (unlit)
26 Nov - 01:01:27 10° W 01:10:40 85° S 01:19:56 10° E visible
26 Nov - 03:06:08 10° WNW 03:14:57 54° SSW 03:23:55 10° SE visible
26 Nov - 05:11:55 10° W 05:18:05 20° SW 05:24:20 10° S visible
26 Nov - 20:28:51 10° SSW 20:37:06 37° SE 20:45:12 10° ENE visible
26 Nov - 22:31:40 10° WSW 22:40:54 74° SSE 22:50:03 10° E visible
27 Nov - 00:36:16 10° W 00:45:31 86° S 00:54:46 10° E night (unlit)
27 Nov - 02:40:58 10° WNW 02:49:51 57° SSW 02:58:52 10° SE visible
27 Nov - 04:46:32 10° W 04:53:04 22° SW 04:59:42 10° S visible
27 Nov - 20:03:57 10° SSW 20:12:03 34° SE 20:19:59 10° ENE visible
27 Nov - 22:06:31 10° WSW 22:15:46 72° SSE 22:24:53 10° ENE visible
28 Nov - 00:11:05 10° W 00:20:20 86° S 00:29:36 10° E night (unlit)
28 Nov - 02:15:48 10° WNW 02:24:44 60° SSW 02:33:47 10° SE visible
28 Nov - 04:21:11 10° W 04:28:02 24° SW 04:35:01 10° S visible
28 Nov - 19:39:04 10° SSW 19:46:59 32° SE 19:54:45 10° E visible
28 Nov - 21:41:24 10° WSW 21:50:38 69° SSE 21:59:43 10° ENE visible
28 Nov - 23:45:55 10° W 23:55:11 87° S 00:04:25 10° E night (unlit)
29 Nov - 01:50:38 10° WNW 01:59:38 63° SSW 02:08:43 10° SE visible
29 Nov - 03:55:53 10° W 04:03:01 26° SW 04:10:16 10° S visible
29 Nov - 19:14:14 10° SSW 19:21:57 30° SE 19:29:30 10° E visible
29 Nov - 21:16:16 10° SW 21:25:30 67° SSE 21:34:33 10° ENE visible
29 Nov - 23:20:44 10° W 23:30:01 87° S 23:39:14 10° E night (unlit)
30 Nov - 01:25:28 10° WNW 01:34:31 66° SSW 01:43:37 10° SE visible
30 Nov - 03:30:35 10° W 03:37:59 28° SW 03:45:29 10° S visible
30 Nov - 18:49:25 10° S 18:56:55 27° SE 19:04:14 10° E visible
30 Nov - 20:51:10 10° SW 21:00:22 64° SSE 21:09:24 10° ENE visible
30 Nov - 22:55:33 10° W 23:04:51 87° S 23:14:04 10° E visible
01 Dec - 01:00:18 10° WNW 01:09:23 68° SSW 01:18:31 10° ESE night (unlit)
01 Dec - 03:05:20 10° W 03:12:57 31° SW 03:20:39 10° SSE visible
01 Dec - 18:24:39 10° S 18:31:53 25° SE 18:38:57 10° E visible
01 Dec - 20:26:04 10° SW 20:35:15 61° SSE 20:44:14 10° ENE visible
01 Dec - 22:30:22 10° W 22:39:41 87° S 22:48:53 10° E visible
02 Dec - 00:35:07 10° WNW 00:44:15 71° SSW 00:53:24 10° ESE night (unlit)
02 Dec - 02:40:05 10° WNW 02:47:54 33° SW 02:55:49 10° SSE visible
02 Dec - 17:59:55 10° S 18:06:51 23° SE 18:13:37 10° E visible
02 Dec - 20:00:58 10° SW 20:10:08 59° SSE 20:19:05 10° ENE visible
02 Dec - 22:05:10 10° W 22:14:31 86° S 22:23:44 10° E visible
03 Dec - 00:09:57 10° W 00:19:07 73° SSW 00:28:16 10° ESE night (unlit)
03 Dec - 02:14:51 10° WNW 02:22:51 35° SW 02:30:57 10° SSE night (unlit)
03 Dec - 17:35:14 10° S 17:41:50 21° SE 17:48:16 10° E visible
03 Dec - 19:35:53 10° SW 19:45:02 56° SSE 19:53:55 10° ENE visible
03 Dec - 21:39:58 10° W 21:49:21 85° S 21:58:34 10° E visible
03 Dec - 23:44:46 10° W 23:53:59 76° SSW 00:03:08 10° ESE night (unlit)
04 Dec - 01:49:37 10° WNW 01:57:48 38° SW 02:06:02 10° SSE night (unlit)
04 Dec - 17:10:37 10° S 17:16:48 19° SE 17:22:51 10° E visible
04 Dec - 19:10:49 10° SW 19:19:55 53° SSE 19:28:45 10° ENE visible
04 Dec - 21:14:47 10° WSW 21:24:11 84° S 21:33:24 10° E visible
04 Dec - 23:19:36 10° W 23:28:50 78° SSW 23:38:00 10° ESE visible
